EVA219 WADD-WBKK

Flight info

Callsign EVA219
Flight time 2h 13m
Altitude 38000
Route DOBMA M522 ELAD
Aircraft B77W/H-SDE1E2E3FGHIJ2J3J4J5M1RWXY/LB1D1

Departure

Time 2026-05-08 05:55
Airport Denpasar I Gusti Ngurah Rai International Airport (WADD)

Arrival

Time 2026-05-08 08:09
Airport Kota Kinabalu International Airport (WBKK)
Time Latitude Longitude Altitude Speed Heading
2026-05-08 05:14 -8.74568 115.16541 38 ft 0 kts 358°
2026-05-08 05:40 -8.74578 115.16542 38 ft 2 kts 357°
2026-05-08 05:41 -8.74592 115.16542 38 ft 2 kts 357°
2026-05-08 05:41 -8.74606 115.16543 34 ft 2 kts 357°
2026-05-08 05:41 -8.74620 115.16544 34 ft 2 kts 356°
2026-05-08 05:41 -8.74634 115.16544 35 ft 2 kts 355°
2026-05-08 05:42 -8.74648 115.16546 36 ft 2 kts 353°
2026-05-08 05:42 -8.74662 115.16547 35 ft 2 kts 348°
2026-05-08 05:42 -8.74674 115.16550 33 ft 1 kts 333°
2026-05-08 05:42 -8.74681 115.16555 33 ft 1 kts 305°
2026-05-08 05:43 -8.74686 115.16563 34 ft 2 kts 277°
2026-05-08 05:43 -8.74686 115.16576 33 ft 2 kts 268°
2026-05-08 05:43 -8.74686 115.16590 34 ft 2 kts 266°
2026-05-08 05:43 -8.74685 115.16603 34 ft 2 kts 268°
2026-05-08 05:44 -8.74685 115.16612 34 ft 1 kts 268°
2026-05-08 05:44 -8.74684 115.16618 33 ft 1 kts 268°
2026-05-08 05:44 -8.74684 115.16624 33 ft 1 kts 268°
2026-05-08 05:44 -8.74684 115.16630 33 ft 0 kts 268°
2026-05-08 05:48 -8.74685 115.16576 33 ft 14 kts 268°
2026-05-08 05:48 -8.74689 115.16457 37 ft 25 kts 268°
2026-05-08 05:48 -8.74697 115.16280 37 ft 21 kts 268°
2026-05-08 05:48 -8.74702 115.16162 38 ft 17 kts 267°
2026-05-08 05:49 -8.74707 115.16044 38 ft 17 kts 268°
2026-05-08 05:49 -8.74711 115.15956 37 ft 12 kts 268°
2026-05-08 05:49 -8.74714 115.15875 37 ft 12 kts 268°
2026-05-08 05:49 -8.74717 115.15794 37 ft 12 kts 268°
2026-05-08 05:50 -8.74721 115.15713 37 ft 12 kts 268°
2026-05-08 05:50 -8.74724 115.15632 37 ft 12 kts 268°
2026-05-08 05:50 -8.74727 115.15551 37 ft 12 kts 268°
2026-05-08 05:50 -8.74730 115.15499 37 ft 7 kts 268°
2026-05-08 05:51 -8.74734 115.15451 37 ft 7 kts 261°
2026-05-08 05:51 -8.74754 115.15408 37 ft 7 kts 222°
2026-05-08 05:51 -8.74784 115.15398 36 ft 0 kts 185°
2026-05-08 05:54 -8.74786 115.15398 36 ft 1 kts 185°
2026-05-08 05:54 -8.74804 115.15394 35 ft 5 kts 191°
2026-05-08 05:54 -8.74851 115.15393 34 ft 8 kts 169°
2026-05-08 05:54 -8.74890 115.15435 33 ft 9 kts 106°
2026-05-08 05:55 -8.74893 115.15498 34 ft 9 kts 86°
2026-05-08 05:55 -8.74884 115.15729 33 ft 79 kts 87°
2026-05-08 05:55 -8.74857 115.16651 45 ft 180 kts 92°
2026-05-08 05:55 -8.74808 115.18060 639 ft 215 kts 88°
2026-05-08 05:56 -8.74734 115.19666 1513 ft 242 kts 90°
2026-05-08 05:56 -8.74681 115.21300 3246 ft 230 kts 89°
2026-05-08 05:56 -8.74612 115.22946 4628 ft 241 kts 88°
2026-05-08 05:56 -8.74536 115.24692 5375 ft 254 kts 88°
2026-05-08 05:57 -8.74457 115.26506 6201 ft 261 kts 88°
2026-05-08 05:57 -8.74378 115.28336 6997 ft 267 kts 88°
2026-05-08 05:57 -8.74297 115.30249 7723 ft 276 kts 88°
2026-05-08 05:57 -8.74217 115.32185 8492 ft 275 kts 88°
2026-05-08 05:58 -8.74135 115.34158 8950 ft 285 kts 88°
2026-05-08 05:58 -8.74051 115.36178 8956 ft 289 kts 88°
2026-05-08 05:58 -8.73966 115.38218 8967 ft 291 kts 88°
2026-05-08 05:58 -8.73881 115.40261 8967 ft 291 kts 88°
2026-05-08 05:59 -8.73796 115.42301 8953 ft 289 kts 88°
2026-05-08 05:59 -8.73712 115.44324 8952 ft 288 kts 88°
2026-05-08 05:59 -8.73629 115.46339 8956 ft 287 kts 88°
2026-05-08 05:59 -8.73545 115.48350 8950 ft 287 kts 88°
2026-05-08 06:00 -8.73322 115.50340 8937 ft 283 kts 72°
2026-05-08 06:00 -8.72390 115.52088 8948 ft 286 kts 49°
2026-05-08 06:00 -8.70983 115.53543 8967 ft 293 kts 45°
2026-05-08 06:00 -8.69510 115.54992 8959 ft 296 kts 44°
2026-05-08 06:01 -8.68040 115.56440 8966 ft 294 kts 45°
2026-05-08 06:01 -8.66573 115.57890 8944 ft 294 kts 45°
2026-05-08 06:01 -8.65123 115.59331 8947 ft 292 kts 45°
2026-05-08 06:01 -8.63703 115.60748 8944 ft 290 kts 45°
2026-05-08 06:02 -8.62253 115.62199 8941 ft 288 kts 45°
2026-05-08 06:02 -8.60850 115.63605 8941 ft 287 kts 45°
2026-05-08 06:02 -8.59433 115.65025 8946 ft 287 kts 45°
2026-05-08 06:02 -8.58013 115.66449 8949 ft 287 kts 45°
2026-05-08 06:03 -8.56595 115.67869 8941 ft 287 kts 45°
2026-05-08 06:03 -8.54996 115.69029 8932 ft 286 kts 20°
2026-05-08 06:03 -8.53025 115.69351 9317 ft 292 kts 358°
2026-05-08 06:03 -8.51002 115.69140 9864 ft 294 kts 353°
2026-05-08 06:04 -8.48978 115.68874 9939 ft 298 kts 353°
2026-05-08 06:04 -8.46921 115.68609 9948 ft 298 kts 353°
2026-05-08 06:04 -8.44865 115.68352 9955 ft 297 kts 353°
2026-05-08 06:04 -8.42808 115.68150 9945 ft 296 kts 356°
2026-05-08 06:05 -8.40746 115.68023 9944 ft 296 kts 357°
2026-05-08 06:05 -8.38689 115.67912 9940 ft 296 kts 357°
2026-05-08 06:05 -8.36638 115.67802 9941 ft 296 kts 357°
2026-05-08 06:05 -8.34579 115.67685 9949 ft 296 kts 357°
2026-05-08 06:06 -8.32517 115.67567 9939 ft 296 kts 357°
2026-05-08 06:06 -8.30466 115.67447 9942 ft 295 kts 357°
2026-05-08 06:06 -8.28419 115.67326 9938 ft 294 kts 357°
2026-05-08 06:06 -8.26374 115.67204 9937 ft 294 kts 357°
2026-05-08 06:07 -8.24333 115.67082 9937 ft 294 kts 357°
2026-05-08 06:07 -8.22296 115.66959 9940 ft 294 kts 357°
2026-05-08 06:07 -8.20248 115.66836 9939 ft 294 kts 357°
2026-05-08 06:07 -8.18203 115.66712 9939 ft 295 kts 357°
2026-05-08 06:08 -8.16158 115.66589 9944 ft 295 kts 357°
2026-05-08 06:08 -8.14103 115.66465 9942 ft 296 kts 357°
2026-05-08 06:08 -8.12045 115.66341 9969 ft 296 kts 357°
2026-05-08 06:08 -8.09978 115.66216 10140 ft 304 kts 357°
2026-05-08 06:09 -8.07772 115.66083 10358 ft 332 kts 357°
2026-05-08 06:09 -8.05400 115.65941 10547 ft 359 kts 357°
2026-05-08 06:09 -8.02831 115.65785 10884 ft 379 kts 357°
2026-05-08 06:09 -8.00166 115.65624 11525 ft 388 kts 356°
2026-05-08 06:10 -7.97431 115.65458 12225 ft 396 kts 356°
2026-05-08 06:10 -7.94663 115.65291 13013 ft 401 kts 356°
2026-05-08 06:10 -7.91864 115.65122 13768 ft 406 kts 356°
2026-05-08 06:10 -7.89022 115.64951 14402 ft 411 kts 355°
2026-05-08 06:11 -7.86147 115.64778 15085 ft 416 kts 355°
2026-05-08 06:11 -7.83245 115.64602 15737 ft 420 kts 355°
2026-05-08 06:11 -7.80306 115.64425 16408 ft 424 kts 355°
2026-05-08 06:11 -7.77340 115.64247 17050 ft 429 kts 355°
2026-05-08 06:12 -7.74340 115.64066 17647 ft 434 kts 355°
2026-05-08 06:12 -7.71311 115.63883 18288 ft 437 kts 355°
2026-05-08 06:12 -7.68275 115.63701 18891 ft 439 kts 355°
2026-05-08 06:12 -7.65202 115.63516 19450 ft 443 kts 355°
2026-05-08 06:13 -7.62110 115.63330 20010 ft 447 kts 355°
2026-05-08 06:13 -7.59004 115.63139 20553 ft 448 kts 354°
2026-05-08 06:13 -7.55947 115.62530 20926 ft 450 kts 338°
2026-05-08 06:13 -7.53273 115.61000 21475 ft 445 kts 321°
2026-05-08 06:14 -7.50821 115.59094 21932 ft 450 kts 321°
2026-05-08 06:14 -7.48272 115.57135 22439 ft 454 kts 321°
2026-05-08 06:14 -7.45780 115.55242 23038 ft 456 kts 322°
2026-05-08 06:14 -7.43233 115.53323 23531 ft 459 kts 322°
2026-05-08 06:15 -7.40620 115.51364 23899 ft 464 kts 322°
2026-05-08 06:15 -7.38018 115.49419 24310 ft 467 kts 322°
2026-05-08 06:15 -7.35443 115.47499 24726 ft 469 kts 322°
2026-05-08 06:15 -7.32809 115.45535 25147 ft 472 kts 322°
2026-05-08 06:16 -7.30160 115.43559 25527 ft 475 kts 322°
2026-05-08 06:16 -7.27490 115.41567 25893 ft 478 kts 322°
2026-05-08 06:16 -7.24814 115.39571 26293 ft 480 kts 322°
2026-05-08 06:16 -7.22111 115.37556 26645 ft 484 kts 323°
2026-05-08 06:17 -7.16660 115.33491 27302 ft 491 kts 323°
2026-05-08 06:17 -7.13914 115.31444 27666 ft 493 kts 323°
2026-05-08 06:17 -7.11147 115.29382 27962 ft 496 kts 323°
2026-05-08 06:18 -7.08364 115.27307 28292 ft 498 kts 323°
2026-05-08 06:18 -7.05565 115.25222 28614 ft 500 kts 323°
2026-05-08 06:18 -7.02764 115.23135 28932 ft 502 kts 323°
2026-05-08 06:18 -6.99951 115.21039 29219 ft 504 kts 323°
2026-05-08 06:19 -6.97128 115.18936 29570 ft 504 kts 323°
2026-05-08 06:19 -6.94300 115.16830 29972 ft 503 kts 323°
2026-05-08 06:19 -6.91529 115.14766 30403 ft 500 kts 323°
2026-05-08 06:19 -6.88729 115.12681 30872 ft 497 kts 323°
2026-05-08 06:20 -6.85956 115.10617 31348 ft 494 kts 323°
2026-05-08 06:20 -6.83053 115.08810 31659 ft 492 kts 336°
2026-05-08 06:20 -6.79770 115.07816 31906 ft 494 kts 353°
2026-05-08 06:20 -6.76340 115.07637 32175 ft 493 kts 358°
2026-05-08 06:21 -6.72909 115.07527 32517 ft 492 kts 358°
2026-05-08 06:21 -6.69493 115.07389 32966 ft 490 kts 357°
2026-05-08 06:21 -6.66137 115.07229 33352 ft 489 kts 357°
2026-05-08 06:21 -6.62708 115.07048 33870 ft 484 kts 357°
2026-05-08 06:22 -6.59405 115.06864 34298 ft 481 kts 356°
2026-05-08 06:22 -6.56052 115.06672 34541 ft 483 kts 356°
2026-05-08 06:22 -6.52699 115.06479 34804 ft 484 kts 356°
2026-05-08 06:22 -6.49335 115.06286 35056 ft 484 kts 356°
2026-05-08 06:23 -6.45975 115.06094 35374 ft 483 kts 356°
2026-05-08 06:23 -6.42610 115.05903 35653 ft 483 kts 356°
2026-05-08 06:23 -6.39251 115.05713 35939 ft 483 kts 356°
2026-05-08 06:23 -6.35893 115.05523 36161 ft 484 kts 356°
2026-05-08 06:24 -6.32531 115.05333 36447 ft 483 kts 355°
2026-05-08 06:24 -6.29175 115.05143 36717 ft 483 kts 355°
2026-05-08 06:24 -6.25820 115.04955 37026 ft 482 kts 355°
2026-05-08 06:24 -6.22471 115.04766 37287 ft 482 kts 355°
2026-05-08 06:25 -6.19121 115.04577 37433 ft 484 kts 355°
2026-05-08 06:25 -6.15748 115.04386 37517 ft 487 kts 355°
2026-05-08 06:25 -6.12361 115.04194 37641 ft 489 kts 355°
2026-05-08 06:25 -6.08953 115.04002 37726 ft 491 kts 355°
2026-05-08 06:26 -6.02103 115.03616 37804 ft 493 kts 355°
2026-05-08 06:26 -5.95319 115.03234 37805 ft 490 kts 355°
2026-05-08 06:27 -5.88511 115.02851 37804 ft 488 kts 355°
2026-05-08 06:27 -5.81727 115.02468 37806 ft 487 kts 355°
2026-05-08 06:28 -5.74964 115.02087 37803 ft 487 kts 355°
2026-05-08 06:28 -5.68202 115.01706 37811 ft 487 kts 355°
2026-05-08 06:29 -5.61413 115.01324 37810 ft 488 kts 355°
2026-05-08 06:29 -5.54628 115.00941 37806 ft 489 kts 355°
2026-05-08 06:30 -5.47834 115.00559 37805 ft 490 kts 355°
2026-05-08 06:30 -5.40963 115.00172 37801 ft 490 kts 356°
2026-05-08 06:31 -5.34159 114.99789 37807 ft 491 kts 356°
2026-05-08 06:31 -5.27344 114.99406 37810 ft 490 kts 356°
2026-05-08 06:32 -5.20554 114.99024 37804 ft 490 kts 356°
2026-05-08 06:32 -5.13745 114.98642 37808 ft 490 kts 356°
2026-05-08 06:33 -5.06939 114.98259 37805 ft 489 kts 356°
2026-05-08 06:33 -5.00157 114.97877 37805 ft 488 kts 356°
2026-05-08 06:34 -4.94520 114.97560 37802 ft 488 kts 356°
2026-05-08 06:34 -4.87736 114.97179 37803 ft 487 kts 356°
2026-05-08 06:35 -4.80918 114.96796 37801 ft 487 kts 356°
2026-05-08 06:35 -4.74158 114.96417 37806 ft 487 kts 356°
2026-05-08 06:36 -4.67425 114.96039 37805 ft 487 kts 356°
2026-05-08 06:36 -4.60614 114.95656 37805 ft 487 kts 356°
2026-05-08 06:37 -4.53850 114.95276 37801 ft 487 kts 356°
2026-05-08 06:37 -4.47081 114.94896 37803 ft 487 kts 356°
2026-05-08 06:38 -4.40311 114.94516 37801 ft 487 kts 356°
2026-05-08 06:38 -4.33537 114.94138 37808 ft 488 kts 356°
2026-05-08 06:39 -4.26748 114.93880 37803 ft 488 kts 358°
2026-05-08 06:39 -4.19904 114.93694 37806 ft 488 kts 358°
2026-05-08 06:40 -4.13108 114.93501 37808 ft 489 kts 358°
2026-05-08 06:40 -4.06312 114.93293 37806 ft 489 kts 358°
2026-05-08 06:41 -3.99505 114.93077 37801 ft 489 kts 358°
2026-05-08 06:41 -3.92699 114.92861 37802 ft 489 kts 358°
2026-05-08 06:42 -3.85890 114.92645 37792 ft 489 kts 358°
2026-05-08 06:42 -3.79079 114.92430 37791 ft 489 kts 358°
2026-05-08 06:43 -3.72271 114.92216 37783 ft 489 kts 358°
2026-05-08 06:43 -3.65456 114.92001 37767 ft 489 kts 358°
2026-05-08 06:44 -3.58654 114.91786 37758 ft 488 kts 358°
2026-05-08 06:44 -3.51911 114.91574 37755 ft 487 kts 358°
2026-05-08 06:45 -3.45144 114.91360 37750 ft 486 kts 358°
2026-05-08 06:45 -3.38396 114.91148 37750 ft 485 kts 358°
2026-05-08 06:46 -3.31653 114.90935 37752 ft 484 kts 358°
2026-05-08 06:46 -3.24937 114.90724 37753 ft 483 kts 358°
2026-05-08 06:47 -3.18223 114.90512 37751 ft 482 kts 358°
2026-05-08 06:47 -3.11516 114.90301 37753 ft 482 kts 359°
2026-05-08 06:48 -3.04806 114.90089 37754 ft 481 kts 359°
2026-05-08 06:48 -2.98115 114.89878 37756 ft 481 kts 359°
2026-05-08 06:49 -2.91411 114.89667 37756 ft 482 kts 359°
2026-05-08 06:49 -2.84703 114.89456 37757 ft 482 kts 359°
2026-05-08 06:50 -2.78041 114.89247 37758 ft 483 kts 359°
2026-05-08 06:50 -2.71300 114.89034 37749 ft 484 kts 359°
2026-05-08 06:51 -2.64558 114.88822 37761 ft 485 kts 359°
2026-05-08 06:51 -2.57805 114.88609 37762 ft 485 kts 359°
2026-05-08 06:52 -2.51036 114.88396 37761 ft 485 kts 359°
2026-05-08 06:52 -2.46267 114.88246 37762 ft 485 kts 359°
2026-05-08 06:53 -2.39514 114.88034 37762 ft 485 kts 359°
2026-05-08 06:53 -2.32769 114.87821 37764 ft 485 kts 359°
2026-05-08 06:54 -2.26024 114.87609 37764 ft 485 kts 359°
2026-05-08 06:54 -2.19279 114.87397 37769 ft 485 kts 359°
2026-05-08 06:55 -2.12538 114.87185 37775 ft 484 kts 359°
2026-05-08 06:55 -2.05798 114.86973 37770 ft 484 kts 359°
2026-05-08 06:56 -1.99093 114.86762 37778 ft 484 kts 359°
2026-05-08 06:56 -1.92346 114.86550 37778 ft 484 kts 359°
2026-05-08 06:57 -1.85608 114.86338 37778 ft 485 kts 359°
2026-05-08 06:57 -1.78861 114.86126 37775 ft 485 kts 359°
2026-05-08 06:58 -1.72115 114.85914 37785 ft 485 kts 359°
2026-05-08 06:58 -1.65328 114.85701 37787 ft 485 kts 359°
2026-05-08 06:59 -1.58578 114.85488 37792 ft 485 kts 359°
2026-05-08 06:59 -1.51820 114.85276 37781 ft 486 kts 359°
2026-05-08 07:00 -1.45053 114.85063 37789 ft 485 kts 359°
2026-05-08 07:00 -1.38304 114.84851 37791 ft 486 kts 359°
2026-05-08 07:01 -1.31550 114.84639 37789 ft 485 kts 359°
2026-05-08 07:01 -1.24793 114.84426 37797 ft 485 kts 359°
2026-05-08 07:02 -1.18038 114.84214 37798 ft 485 kts 359°
2026-05-08 07:02 -1.11290 114.84002 37791 ft 485 kts 359°
2026-05-08 07:03 -1.04580 114.83791 37789 ft 485 kts 359°
2026-05-08 07:03 -0.97830 114.83579 37796 ft 485 kts 359°
2026-05-08 07:04 -0.91041 114.83712 37798 ft 484 kts
2026-05-08 07:04 -0.84452 114.84879 37809 ft 484 kts 12°
2026-05-08 07:05 -0.77842 114.86198 37798 ft 484 kts 12°
2026-05-08 07:05 -0.71226 114.87486 37799 ft 485 kts 12°
2026-05-08 07:06 -0.64582 114.88751 37796 ft 485 kts 12°
2026-05-08 07:06 -0.57946 114.90007 37799 ft 485 kts 12°
2026-05-08 07:07 -0.51306 114.91266 37798 ft 485 kts 12°
2026-05-08 07:07 -0.44662 114.92526 37798 ft 485 kts 12°
2026-05-08 07:08 -0.39144 114.93574 37799 ft 485 kts 12°
2026-05-08 07:08 -0.31430 114.95038 37801 ft 485 kts 12°
2026-05-08 07:09 -0.25875 114.96093 37801 ft 485 kts 12°
2026-05-08 07:09 -0.19244 114.97352 37801 ft 485 kts 12°
2026-05-08 07:10 -0.12620 114.98609 37805 ft 485 kts 12°
2026-05-08 07:10 -0.05988 114.99866 37811 ft 485 kts 12°
2026-05-08 07:11 0.00643 115.01125 37809 ft 486 kts 12°
2026-05-08 07:11 0.07290 115.02386 37806 ft 486 kts 12°
2026-05-08 07:12 0.13934 115.03647 37807 ft 486 kts 12°
2026-05-08 07:12 0.20575 115.04907 37809 ft 486 kts 12°
2026-05-08 07:13 0.27231 115.06170 37810 ft 486 kts 12°
2026-05-08 07:13 0.33838 115.07424 37809 ft 486 kts 12°
2026-05-08 07:14 0.40527 115.08694 37813 ft 486 kts 12°
2026-05-08 07:14 0.47168 115.09955 37815 ft 486 kts 12°
2026-05-08 07:15 0.53809 115.11215 37813 ft 486 kts 12°
2026-05-08 07:15 0.60458 115.12477 37821 ft 485 kts 12°
2026-05-08 07:16 0.67095 115.13737 37822 ft 485 kts 12°
2026-05-08 07:16 0.73691 115.14989 37826 ft 485 kts 12°
2026-05-08 07:17 0.80330 115.16249 37825 ft 485 kts 12°
2026-05-08 07:17 0.86964 115.17508 37832 ft 484 kts 12°
2026-05-08 07:18 0.93576 115.18763 37834 ft 484 kts 12°
2026-05-08 07:18 1.00206 115.20022 37834 ft 484 kts 12°
2026-05-08 07:19 1.06828 115.21279 37828 ft 484 kts 12°
2026-05-08 07:19 1.13450 115.22537 37832 ft 484 kts 12°
2026-05-08 07:20 1.20081 115.23796 37829 ft 485 kts 12°
2026-05-08 07:20 1.26709 115.25054 37821 ft 485 kts 12°
2026-05-08 07:21 1.33304 115.26306 37824 ft 485 kts 12°
2026-05-08 07:21 1.39943 115.27567 37818 ft 485 kts 12°
2026-05-08 07:22 1.46585 115.28828 37823 ft 485 kts 12°
2026-05-08 07:22 1.53213 115.30087 37825 ft 485 kts 12°
2026-05-08 07:23 1.59846 115.31347 37823 ft 485 kts 12°
2026-05-08 07:23 1.66475 115.32607 37821 ft 485 kts 12°
2026-05-08 07:24 1.73114 115.33868 37825 ft 485 kts 11°
2026-05-08 07:24 1.79752 115.35128 37816 ft 485 kts 11°
2026-05-08 07:25 1.86390 115.36389 37820 ft 486 kts 11°
2026-05-08 07:26 1.96354 115.38283 37821 ft 486 kts 11°
2026-05-08 07:26 2.03000 115.39546 37819 ft 486 kts 11°
2026-05-08 07:27 2.09612 115.40802 37814 ft 487 kts 11°
2026-05-08 07:27 2.16268 115.42067 37815 ft 487 kts 11°
2026-05-08 07:28 2.22941 115.43336 37806 ft 488 kts 11°
2026-05-08 07:28 2.29652 115.44611 37821 ft 488 kts 11°
2026-05-08 07:29 2.36288 115.45873 37805 ft 489 kts 11°
2026-05-08 07:29 2.42978 115.47145 37811 ft 489 kts 11°
2026-05-08 07:30 2.49658 115.48415 37812 ft 489 kts 11°
2026-05-08 07:30 2.56357 115.49689 37817 ft 489 kts 11°
2026-05-08 07:31 2.63046 115.50961 37809 ft 489 kts 11°
2026-05-08 07:31 2.69732 115.52233 37817 ft 489 kts 11°
2026-05-08 07:32 2.76423 115.53506 37817 ft 489 kts 11°
2026-05-08 07:32 2.83105 115.54777 37821 ft 488 kts 11°
2026-05-08 07:33 2.89792 115.56049 37822 ft 488 kts 11°
2026-05-08 07:33 2.96454 115.57317 37830 ft 487 kts 11°
2026-05-08 07:34 3.03124 115.58586 37823 ft 487 kts 11°
2026-05-08 07:34 3.09779 115.59853 37832 ft 486 kts 11°
2026-05-08 07:35 3.16418 115.61117 37839 ft 485 kts 11°
2026-05-08 07:35 3.23046 115.62379 37841 ft 485 kts 11°
2026-05-08 07:36 3.29676 115.63641 37842 ft 484 kts 11°
2026-05-08 07:36 3.36288 115.64900 37844 ft 483 kts 11°
2026-05-08 07:37 3.42905 115.66161 37850 ft 483 kts 11°
2026-05-08 07:37 3.49465 115.67410 37855 ft 482 kts 11°
2026-05-08 07:38 3.56052 115.68666 37859 ft 481 kts 11°
2026-05-08 07:38 3.62634 115.69920 37863 ft 481 kts 11°
2026-05-08 07:39 3.69203 115.71172 37866 ft 480 kts 11°
2026-05-08 07:39 3.75782 115.72426 37859 ft 481 kts 11°
2026-05-08 07:40 3.82352 115.73678 37868 ft 480 kts 11°
2026-05-08 07:40 3.88916 115.74930 37863 ft 480 kts 11°
2026-05-08 07:41 3.95444 115.76175 37869 ft 481 kts 11°
2026-05-08 07:41 4.02019 115.77430 37875 ft 481 kts 11°
2026-05-08 07:42 4.08602 115.78679 37879 ft 481 kts
2026-05-08 07:42 4.15235 115.79653 37875 ft 482 kts
2026-05-08 07:43 4.21890 115.80519 37877 ft 482 kts
2026-05-08 07:43 4.28555 115.81400 37883 ft 483 kts
2026-05-08 07:43 4.31900 115.81851 37522 ft 489 kts
2026-05-08 07:44 4.35312 115.82315 36796 ft 495 kts
2026-05-08 07:44 4.38713 115.82780 36118 ft 493 kts
2026-05-08 07:44 4.42111 115.83244 35413 ft 493 kts
2026-05-08 07:44 4.45527 115.83711 34600 ft 496 kts
2026-05-08 07:45 4.48941 115.84177 34000 ft 494 kts
2026-05-08 07:45 4.52338 115.84640 33385 ft 491 kts
2026-05-08 07:45 4.54577 115.84946 33004 ft 488 kts
2026-05-08 07:45 4.57930 115.85403 32462 ft 483 kts
2026-05-08 07:46 4.61245 115.85855 31950 ft 479 kts
2026-05-08 07:46 4.64542 115.86305 31428 ft 475 kts
2026-05-08 07:46 4.67805 115.86750 30914 ft 472 kts
2026-05-08 07:46 4.71058 115.87194 30389 ft 469 kts
2026-05-08 07:47 4.74283 115.87634 29870 ft 466 kts
2026-05-08 07:47 4.77484 115.88071 29285 ft 463 kts
2026-05-08 07:47 4.80662 115.88505 28736 ft 458 kts
2026-05-08 07:47 4.83809 115.88934 28213 ft 454 kts
2026-05-08 07:48 4.86924 115.89360 27700 ft 450 kts
2026-05-08 07:48 4.89968 115.89773 27210 ft 446 kts
2026-05-08 07:48 4.93028 115.90173 26709 ft 442 kts
2026-05-08 07:48 4.96072 115.90562 26220 ft 439 kts
2026-05-08 07:49 4.99087 115.90945 25725 ft 435 kts
2026-05-08 07:49 5.02085 115.91328 25229 ft 433 kts
2026-05-08 07:49 5.05065 115.91710 24739 ft 430 kts
2026-05-08 07:49 5.08030 115.92091 24255 ft 428 kts
2026-05-08 07:50 5.10974 115.92471 23769 ft 426 kts
2026-05-08 07:50 5.13919 115.92851 23260 ft 424 kts
2026-05-08 07:50 5.16836 115.93226 22720 ft 422 kts
2026-05-08 07:50 5.19738 115.93601 22229 ft 418 kts
2026-05-08 07:51 5.22614 115.93898 21736 ft 413 kts
2026-05-08 07:51 5.25440 115.93495 21265 ft 413 kts 342°
2026-05-08 07:51 5.28090 115.92459 20823 ft 406 kts 339°
2026-05-08 07:51 5.30699 115.91393 20375 ft 404 kts 339°
2026-05-08 07:52 5.33301 115.90335 19918 ft 402 kts 340°
2026-05-08 07:52 5.35900 115.89294 19443 ft 401 kts 340°
2026-05-08 07:52 5.38492 115.88265 18982 ft 400 kts 340°
2026-05-08 07:52 5.41073 115.87247 18513 ft 398 kts 340°
2026-05-08 07:53 5.43650 115.86235 18052 ft 397 kts 340°
2026-05-08 07:53 5.46216 115.85229 17537 ft 395 kts 340°
2026-05-08 07:53 5.48773 115.84227 17059 ft 393 kts 340°
2026-05-08 07:53 5.51311 115.83232 16593 ft 390 kts 340°
2026-05-08 07:54 5.53832 115.82244 16143 ft 387 kts 340°
2026-05-08 07:54 5.56332 115.81263 15682 ft 385 kts 340°
2026-05-08 07:54 5.58821 115.80287 15216 ft 383 kts 340°
2026-05-08 07:54 5.61268 115.79327 14781 ft 381 kts 340°
2026-05-08 07:55 5.63732 115.78360 14329 ft 379 kts 340°
2026-05-08 07:55 5.66177 115.77401 13881 ft 377 kts 340°
2026-05-08 07:55 5.68616 115.76445 13417 ft 375 kts 340°
2026-05-08 07:55 5.71063 115.75683 12912 ft 365 kts 354°
2026-05-08 07:56 5.73569 115.75799 12491 ft 358 kts 13°
2026-05-08 07:56 5.75874 115.76647 12157 ft 350 kts 30°
2026-05-08 07:56 5.77887 115.77866 12123 ft 335 kts 33°
2026-05-08 07:56 5.79833 115.79096 12023 ft 324 kts 33°
2026-05-08 07:57 5.81707 115.80284 11879 ft 314 kts 33°
2026-05-08 07:57 5.83531 115.81433 11766 ft 305 kts 33°
2026-05-08 07:57 5.85304 115.82541 11652 ft 295 kts 32°
2026-05-08 07:57 5.87023 115.83611 11517 ft 286 kts 33°
2026-05-08 07:58 5.88689 115.84645 11414 ft 277 kts 32°
2026-05-08 07:58 5.90313 115.85650 11175 ft 272 kts 33°
2026-05-08 07:58 5.91915 115.86641 10900 ft 269 kts 32°
2026-05-08 07:58 5.93507 115.87625 10623 ft 267 kts 33°
2026-05-08 07:59 5.95085 115.88600 10316 ft 266 kts 32°
2026-05-08 07:59 5.96661 115.89574 10035 ft 264 kts 33°
2026-05-08 07:59 5.98197 115.90522 9944 ft 253 kts 33°
2026-05-08 07:59 5.99670 115.91431 9832 ft 244 kts 33°
2026-05-08 08:00 6.01083 115.92303 9724 ft 233 kts 33°
2026-05-08 08:00 6.02423 115.93131 9631 ft 220 kts 33°
2026-05-08 08:00 6.03687 115.93912 9361 ft 215 kts 33°
2026-05-08 08:00 6.04963 115.94701 9021 ft 213 kts 33°
2026-05-08 08:01 6.06228 115.95484 8639 ft 214 kts 33°
2026-05-08 08:01 6.07484 115.96261 8306 ft 212 kts 33°
2026-05-08 08:01 6.08743 115.97040 7970 ft 210 kts 33°
2026-05-08 08:01 6.09971 115.97799 7692 ft 206 kts 33°
2026-05-08 08:02 6.11176 115.98544 7410 ft 202 kts 33°
2026-05-08 08:02 6.12376 115.99286 7059 ft 202 kts 32°
2026-05-08 08:02 6.13562 116.00018 6765 ft 199 kts 33°
2026-05-08 08:02 6.14754 116.00756 6362 ft 203 kts 33°
2026-05-08 08:03 6.15933 116.01497 6107 ft 196 kts 38°
2026-05-08 08:03 6.16742 116.02580 5583 ft 198 kts 76°
2026-05-08 08:03 6.16781 116.03913 5352 ft 191 kts 102°
2026-05-08 08:03 6.16341 116.05182 5153 ft 196 kts 110°
2026-05-08 08:04 6.15811 116.06472 4870 ft 202 kts 110°
2026-05-08 08:04 6.15268 116.07785 4636 ft 203 kts 110°
2026-05-08 08:04 6.14735 116.09081 4426 ft 199 kts 110°
2026-05-08 08:04 6.14208 116.10373 4125 ft 199 kts 110°
2026-05-08 08:05 6.13630 116.11624 3865 ft 197 kts 123°
2026-05-08 08:05 6.12504 116.12400 3617 ft 207 kts 163°
2026-05-08 08:05 6.11007 116.12329 3358 ft 226 kts 194°
2026-05-08 08:05 6.09508 116.11828 3008 ft 224 kts 202°
2026-05-08 08:06 6.08120 116.11252 2752 ft 209 kts 204°
2026-05-08 08:06 6.06847 116.10704 2481 ft 185 kts 203°
2026-05-08 08:06 6.05705 116.10216 2296 ft 176 kts 202°
2026-05-08 08:06 6.04550 116.09724 2072 ft 184 kts 203°
2026-05-08 08:07 6.03362 116.09218 1782 ft 182 kts 204°
2026-05-08 08:07 6.02237 116.08740 1571 ft 175 kts 203°
2026-05-08 08:07 6.01093 116.08254 1356 ft 177 kts 202°
2026-05-08 08:07 5.99982 116.07782 1140 ft 176 kts 204°
2026-05-08 08:08 5.98846 116.07298 924 ft 178 kts 203°
2026-05-08 08:08 5.97695 116.06809 683 ft 174 kts 202°
2026-05-08 08:08 5.96590 116.06338 449 ft 171 kts 201°
2026-05-08 08:08 5.95544 116.05892 214 ft 160 kts 200°
2026-05-08 08:09 5.94534 116.05463 40 ft 156 kts 201°
2026-05-08 08:09 5.93628 116.05077 34 ft 119 kts 202°
2026-05-08 08:09 5.93140 116.04873 34 ft 37 kts 202°
2026-05-08 08:09 5.92903 116.04778 34 ft 36 kts 196°
2026-05-08 08:10 5.92676 116.04760 34 ft 20 kts 176°
2026-05-08 08:10 5.92548 116.04774 34 ft 18 kts 173°
2026-05-08 08:10 5.92472 116.04772 33 ft 10 kts 193°
2026-05-08 08:10 5.92413 116.04800 34 ft 10 kts 128°
2026-05-08 08:11 5.92409 116.04808 34 ft 0 kts 113°
2026-05-08 08:11 5.92408 116.04812 34 ft 1 kts 113°
2026-05-08 08:11 5.92405 116.04819 34 ft 1 kts 113°
2026-05-08 08:11 5.92399 116.04832 34 ft 3 kts 108°
2026-05-08 08:12 5.92401 116.04857 34 ft 4 kts 72°
2026-05-08 08:12 5.92426 116.04882 34 ft 6 kts 32°
2026-05-08 08:12 5.92468 116.04902 34 ft 7 kts 24°
2026-05-08 08:12 5.92511 116.04930 34 ft 8 kts 64°
2026-05-08 08:13 5.92500 116.04983 34 ft 0 kts 112°